Time,TemperatureF,DewpointF,PressureIn,WindDirection,WindDirectionDegrees,WindSpeedMPH,WindSpeedGustMPH,Humidity,HourlyPrecipIn,Conditions,Clouds,dailyrainin,SoftwareType,DateUTC
2013-03-16 00:01:00,44.3,41.9,29.38,SW,225,1.1,6.9,91,0.01,,,0.00,WUHU216HW,2013-03-16 00:01:00,
2013-03-16 00:06:00,44.3,41.9,29.38,NNE,23,4.7,10.7,91,0.00,,,0.00,WUHU216HW,2013-03-16 00:06:00,
2013-03-16 00:11:00,44.3,41.6,29.38,ENE,68,2.0,10.7,90,0.00,,,0.00,WUHU216HW,2013-03-16 00:11:00,
2013-03-16 00:16:00,44.3,41.6,29.38,SSW,203,3.6,6.5,90,0.00,,,0.00,WUHU216HW,2013-03-16 00:16:00,
2013-03-16 00:21:00,44.3,41.9,29.38,SW,225,4.3,5.4,91,0.00,,,0.00,WUHU216HW,2013-03-16 00:21:00,
2013-03-16 00:26:00,44.3,41.9,29.38,SSW,203,3.6,5.1,91,0.00,,,0.00,WUHU216HW,2013-03-16 00:26:00,
2013-03-16 00:31:00,44.3,41.9,29.38,NNW,338,2.7,8.1,91,0.00,,,0.00,WUHU216HW,2013-03-16 00:31:00,
2013-03-16 00:36:00,44.3,41.9,29.37,ESE,113,4.5,8.1,91,0.00,,,0.00,WUHU216HW,2013-03-16 00:36:00,
2013-03-16 00:41:00,44.3,41.9,29.37,SE,135,2.5,6.9,91,0.00,,,0.00,WUHU216HW,2013-03-16 00:41:00,
2013-03-16 00:46:00,44.5,42.0,29.37,South,180,3.6,6.9,91,0.00,,,0.00,WUHU216HW,2013-03-16 00:46:00,
2013-03-16 00:51:00,44.5,42.0,29.37,South,180,5.8,5.8,91,0.00,,,0.00,WUHU216HW,2013-03-16 00:51:00,
2013-03-16 00:56:00,44.5,42.0,29.37,SSW,203,2.5,5.8,91,0.00,,,0.00,WUHU216HW,2013-03-16 00:56:00,
2013-03-16 01:01:00,44.5,42.0,29.37,East,90,2.5,8.5,91,0.00,,,0.00,WUHU216HW,2013-03-16 01:01:00,
2013-03-16 01:06:00,44.6,42.2,29.37,NNE,23,2.0,9.2,91,0.00,,,0.00,WUHU216HW,2013-03-16 01:06:00,
2013-03-16 01:11:00,44.6,42.2,29.36,NNE,23,4.0,9.2,91,0.00,,,0.00,WUHU216HW,2013-03-16 01:11:00,
2013-03-16 01:16:00,44.5,41.8,29.36,SE,135,3.4,8.1,90,0.00,,,0.00,WUHU216HW,2013-03-16 01:16:00,
2013-03-16 01:21:00,44.5,41.8,29.36,South,180,6.5,8.9,90,0.00,,,0.00,WUHU216HW,2013-03-16 01:21:00,
2013-03-16 01:26:00,44.5,41.8,29.36,SSE,158,6.5,8.9,90,0.00,,,0.00,WUHU216HW,2013-03-16 01:26:00,
2013-03-16 01:31:00,44.5,41.8,29.36,East,90,3.1,7.2,90,0.00,,,0.00,WUHU216HW,2013-03-16 01:31:00,
2013-03-16 01:36:00,44.5,41.8,29.36,SSW,203,3.4,7.2,90,0.00,,,0.00,WUHU216HW,2013-03-16 01:36:00,
2013-03-16 01:41:00,44.6,41.9,29.36,SSE,158,2.9,6.5,90,0.00,,,0.00,WUHU216HW,2013-03-16 01:41:00,
2013-03-16 01:46:00,44.5,41.8,29.35,ESE,113,3.4,8.7,90,0.00,,,0.00,WUHU216HW,2013-03-16 01:46:00,
2013-03-16 01:51:00,44.5,41.8,29.35,SSE,158,3.1,8.7,90,0.00,,,0.00,WUHU216HW,2013-03-16 01:51:00,
2013-03-16 01:56:00,44.5,41.8,29.35,South,180,4.7,6.9,90,0.00,,,0.00,WUHU216HW,2013-03-16 01:56:00,
2013-03-16 02:01:00,44.5,41.8,29.34,East,90,6.0,6.0,90,0.00,,,0.00,WUHU216HW,2013-03-16 02:01:00,
2013-03-16 02:06:00,44.5,41.8,29.34,North,0,1.1,6.0,90,0.00,,,0.00,WUHU216HW,2013-03-16 02:06:00,
2013-03-16 02:11:00,44.5,41.8,29.34,ESE,113,6.3,11.4,90,0.00,,,0.00,WUHU216HW,2013-03-16 02:11:00,
2013-03-16 02:16:00,44.5,41.8,29.34,NE,45,5.4,11.4,90,0.00,,,0.00,WUHU216HW,2013-03-16 02:16:00,
2013-03-16 02:21:00,44.5,41.8,29.34,SSW,203,4.9,7.4,90,0.00,,,0.00,WUHU216HW,2013-03-16 02:21:00,
2013-03-16 02:26:00,44.3,41.6,29.34,SE,135,8.9,8.9,90,0.00,,,0.00,WUHU216HW,2013-03-16 02:26:00,
2013-03-16 02:31:00,44.3,41.6,29.34,SSW,203,3.4,8.9,90,0.00,,,0.00,WUHU216HW,2013-03-16 02:31:00,
2013-03-16 02:36:00,44.3,41.6,29.33,East,90,4.0,8.9,90,0.00,,,0.00,WUHU216HW,2013-03-16 02:36:00,
2013-03-16 02:41:00,44.5,41.8,29.33,South,180,6.0,6.3,90,0.00,,,0.00,WUHU216HW,2013-03-16 02:41:00,
2013-03-16 02:46:00,44.3,41.3,29.33,SSE,158,4.9,6.7,89,0.00,,,0.00,WUHU216HW,2013-03-16 02:46:00,
2013-03-16 02:51:00,44.5,41.5,29.33,ESE,113,9.2,9.2,89,0.00,,,0.00,WUHU216HW,2013-03-16 02:51:00,
2013-03-16 02:56:00,44.5,41.5,29.32,South,180,5.4,9.2,89,0.00,,,0.00,WUHU216HW,2013-03-16 02:56:00,
2013-03-16 03:01:00,44.5,41.5,29.32,SE,135,8.5,9.2,89,0.00,,,0.00,WUHU216HW,2013-03-16 03:01:00,
2013-03-16 03:06:00,44.5,41.1,29.32,NW,315,3.1,8.9,88,0.00,,,0.00,WUHU216HW,2013-03-16 03:06:00,
2013-03-16 03:11:00,44.3,41.0,29.32,SSE,158,1.8,9.4,88,0.00,,,0.00,WUHU216HW,2013-03-16 03:11:00,
2013-03-16 03:16:00,44.3,41.0,29.31,SSW,203,5.1,9.4,88,0.00,,,0.00,WUHU216HW,2013-03-16 03:16:00,
2013-03-16 03:21:00,44.5,41.1,29.31,SSW,203,4.0,8.3,88,0.00,,,0.00,WUHU216HW,2013-03-16 03:21:00,
2013-03-16 03:26:00,44.3,41.0,29.31,ENE,68,4.5,8.3,88,0.00,,,0.00,WUHU216HW,2013-03-16 03:26:00,
2013-03-16 03:31:00,44.3,41.0,29.31,SSE,158,6.3,8.5,88,0.00,,,0.00,WUHU216HW,2013-03-16 03:31:00,
2013-03-16 03:36:00,44.3,41.0,29.31,NE,45,3.6,8.5,88,0.00,,,0.00,WUHU216HW,2013-03-16 03:36:00,
2013-03-16 03:41:00,44.3,41.3,29.31,ENE,68,2.0,8.5,89,0.00,,,0.00,WUHU216HW,2013-03-16 03:41:00,
2013-03-16 03:46:00,44.3,41.3,29.30,SSE,158,10.1,10.1,89,0.00,,,0.00,WUHU216HW,2013-03-16 03:46:00,
2013-03-16 03:51:00,44.3,41.3,29.31,ESE,113,4.5,10.1,89,0.00,,,0.00,WUHU216HW,2013-03-16 03:51:00,
2013-03-16 03:56:00,44.3,41.3,29.30,SSE,158,2.0,10.1,89,0.00,,,0.00,WUHU216HW,2013-03-16 03:56:00,
2013-03-16 04:00:00,44.3,41.3,29.30,SSW,203,4.0,7.4,89,0.01,,,0.01,WUHU216HW,2013-03-16 04:00:00,
2013-03-16 04:05:00,44.1,41.1,29.30,NE,45,3.8,6.7,89,0.01,,,0.01,WUHU216HW,2013-03-16 04:05:00,
2013-03-16 04:10:00,44.3,41.3,29.30,NNE,23,6.7,7.6,89,0.01,,,0.01,WUHU216HW,2013-03-16 04:10:00,
2013-03-16 04:15:00,44.1,41.1,29.30,South,180,4.7,7.6,89,0.01,,,0.01,WUHU216HW,2013-03-16 04:15:00,
2013-03-16 04:20:00,44.1,41.1,29.30,ESE,113,8.9,8.9,89,0.01,,,0.01,WUHU216HW,2013-03-16 04:20:00,
2013-03-16 04:25:00,44.1,41.1,29.29,ESE,113,5.4,8.9,89,0.01,,,0.01,WUHU216HW,2013-03-16 04:25:00,
2013-03-16 04:30:00,44.1,41.1,29.30,SSE,158,6.7,8.1,89,0.01,,,0.01,WUHU216HW,2013-03-16 04:30:00,
2013-03-16 04:35:00,43.9,41.0,29.30,ESE,113,2.2,8.5,89,0.01,,,0.01,WUHU216HW,2013-03-16 04:35:00,
2013-03-16 04:40:00,43.9,41.0,29.29,SE,135,8.9,8.9,89,0.01,,,0.01,WUHU216HW,2013-03-16 04:40:00,
2013-03-16 04:45:00,43.7,41.0,29.29,East,90,5.4,9.8,90,0.01,,,0.01,WUHU216HW,2013-03-16 04:45:00,
2013-03-16 04:50:00,43.7,41.0,29.29,NNE,23,7.6,9.8,90,0.01,,,0.01,WUHU216HW,2013-03-16 04:50:00,
2013-03-16 04:55:00,43.6,40.9,29.29,South,180,3.6,8.5,90,0.01,,,0.01,WUHU216HW,2013-03-16 04:55:00,
2013-03-16 05:00:00,43.6,40.9,29.29,ESE,113,2.5,9.8,90,0.00,,,0.01,WUHU216HW,2013-03-16 05:00:00,
2013-03-16 05:05:00,43.6,40.6,29.29,SSE,158,5.6,9.8,89,0.00,,,0.01,WUHU216HW,2013-03-16 05:05:00,
2013-03-16 05:10:00,43.4,40.4,29.29,South,180,2.9,11.4,89,0.00,,,0.01,WUHU216HW,2013-03-16 05:10:00,
2013-03-16 05:15:00,43.2,40.2,29.28,WNW,293,6.7,11.4,89,0.00,,,0.01,WUHU216HW,2013-03-16 05:15:00,
2013-03-16 05:20:00,43.2,40.2,29.28,East,90,4.7,9.6,89,0.00,,,0.01,WUHU216HW,2013-03-16 05:20:00,
2013-03-16 05:25:00,43.2,40.2,29.28,East,90,6.3,8.3,89,0.01,,,0.02,WUHU216HW,2013-03-16 05:25:00,
2013-03-16 05:30:00,43.2,40.5,29.27,SE,135,3.4,8.3,90,0.01,,,0.02,WUHU216HW,2013-03-16 05:30:00,
2013-03-16 05:35:00,43.2,40.5,29.27,West,270,4.9,7.8,90,0.01,,,0.02,WUHU216HW,2013-03-16 05:35:00,
2013-03-16 05:40:00,43.2,40.5,29.27,SSW,203,5.4,7.8,90,0.01,,,0.02,WUHU216HW,2013-03-16 05:40:00,
2013-03-16 05:45:00,43.2,40.5,29.27,East,90,4.0,8.3,90,0.01,,,0.02,WUHU216HW,2013-03-16 05:45:00,
2013-03-16 05:50:00,43.2,40.5,29.27,SSE,158,7.6,8.3,90,0.01,,,0.02,WUHU216HW,2013-03-16 05:50:00,
2013-03-16 05:55:00,43.2,40.8,29.27,SSW,203,1.3,11.9,91,0.01,,,0.02,WUHU216HW,2013-03-16 05:55:00,
2013-03-16 06:00:00,43.2,40.8,29.27,South,180,6.5,11.9,91,0.01,,,0.02,WUHU216HW,2013-03-16 06:00:00,
2013-03-16 06:05:00,43.2,40.8,29.26,SSE,158,3.8,10.7,91,0.01,,,0.02,WUHU216HW,2013-03-16 06:05:00,
2013-03-16 06:10:00,43.2,40.8,29.26,South,180,4.7,10.7,91,0.02,,,0.03,WUHU216HW,2013-03-16 06:10:00,
2013-03-16 06:15:00,43.2,40.8,29.26,ESE,113,7.4,7.4,91,0.02,,,0.03,WUHU216HW,2013-03-16 06:15:00,
2013-03-16 06:20:00,43.4,41.0,29.26,East,90,3.8,8.9,91,0.02,,,0.03,WUHU216HW,2013-03-16 06:20:00,
2013-03-16 06:25:00,43.2,40.8,29.26,SSW,203,2.9,8.9,91,0.01,,,0.03,WUHU216HW,2013-03-16 06:25:00,
2013-03-16 06:30:00,43.2,40.8,29.26,ESE,113,3.4,8.5,91,0.01,,,0.03,WUHU216HW,2013-03-16 06:30:00,
2013-03-16 06:35:00,43.2,40.8,29.26,ENE,68,2.5,8.3,91,0.01,,,0.03,WUHU216HW,2013-03-16 06:35:00,
2013-03-16 06:40:00,43.2,40.8,29.26,ENE,68,4.5,8.5,91,0.01,,,0.03,WUHU216HW,2013-03-16 06:40:00,
2013-03-16 06:45:00,43.2,40.8,29.26,South,180,2.5,8.5,91,0.01,,,0.03,WUHU216HW,2013-03-16 06:45:00,
2013-03-16 06:50:00,43.2,40.8,29.26,East,90,5.6,7.6,91,0.01,,,0.03,WUHU216HW,2013-03-16 06:50:00,
2013-03-16 06:55:00,43.2,40.8,29.26,WSW,248,8.5,9.2,91,0.01,,,0.03,WUHU216HW,2013-03-16 06:55:00,
2013-03-16 07:00:00,43.2,41.0,29.25,SW,225,3.4,9.2,92,0.01,,,0.03,WUHU216HW,2013-03-16 07:00:00,
2013-03-16 07:05:00,43.4,41.2,29.25,ENE,68,3.4,9.8,92,0.02,,,0.04,WUHU216HW,2013-03-16 07:05:00,
2013-03-16 07:10:00,43.2,40.8,29.25,ENE,68,2.2,10.5,91,0.01,,,0.04,WUHU216HW,2013-03-16 07:10:00,
2013-03-16 07:15:00,43.2,40.8,29.25,SE,135,8.1,10.5,91,0.01,,,0.04,WUHU216HW,2013-03-16 07:15:00,
2013-03-16 07:20:00,43.4,41.0,29.25,SSE,158,3.1,8.1,91,0.01,,,0.04,WUHU216HW,2013-03-16 07:20:00,
2013-03-16 07:25:00,43.4,41.2,29.25,SSE,158,2.0,8.1,92,0.01,,,0.04,WUHU216HW,2013-03-16 07:25:00,
2013-03-16 07:30:00,43.4,41.2,29.24,ESE,113,4.7,6.9,92,0.01,,,0.04,WUHU216HW,2013-03-16 07:30:00,
2013-03-16 07:35:00,43.4,41.0,29.24,SSW,203,7.6,7.6,91,0.03,,,0.06,WUHU216HW,2013-03-16 07:35:00,
2013-03-16 07:40:00,43.4,41.2,29.24,ESE,113,4.3,8.5,92,0.03,,,0.06,WUHU216HW,2013-03-16 07:40:00,
2013-03-16 07:45:00,43.4,41.2,29.24,NNE,23,6.3,8.5,92,0.03,,,0.06,WUHU216HW,2013-03-16 07:45:00,
2013-03-16 07:50:00,43.6,41.4,29.24,SSE,158,4.9,7.2,92,0.03,,,0.06,WUHU216HW,2013-03-16 07:50:00,
2013-03-16 07:55:00,43.6,41.1,29.24,SE,135,9.8,9.8,91,0.03,,,0.06,WUHU216HW,2013-03-16 07:55:00,
2013-03-16 08:00:00,43.6,41.1,29.24,ESE,113,6.9,9.8,91,0.03,,,0.06,WUHU216HW,2013-03-16 08:00:00,
2013-03-16 08:05:00,43.7,41.3,29.24,East,90,4.0,10.7,91,0.02,,,0.06,WUHU216HW,2013-03-16 08:05:00,
2013-03-16 08:10:00,43.7,41.3,29.24,SSW,203,7.8,10.7,91,0.02,,,0.06,WUHU216HW,2013-03-16 08:10:00,
2013-03-16 08:15:00,43.9,41.5,29.24,SSE,158,9.6,9.6,91,0.02,,,0.06,WUHU216HW,2013-03-16 08:15:00,
2013-03-16 08:20:00,43.9,41.2,29.24,ESE,113,5.4,9.6,90,0.02,,,0.06,WUHU216HW,2013-03-16 08:20:00,
2013-03-16 08:25:00,43.9,41.2,29.23,NNW,338,2.0,9.6,90,0.02,,,0.06,WUHU216HW,2013-03-16 08:25:00,
2013-03-16 08:30:00,43.9,41.2,29.23,SE,135,8.9,11.4,90,0.02,,,0.06,WUHU216HW,2013-03-16 08:30:00,
2013-03-16 08:35:00,43.9,41.2,29.23,ENE,68,5.6,11.4,90,0.01,,,0.06,WUHU216HW,2013-03-16 08:35:00,
2013-03-16 08:40:00,43.9,41.2,29.23,ESE,113,6.0,9.2,90,0.01,,,0.06,WUHU216HW,2013-03-16 08:40:00,
2013-03-16 08:45:00,43.9,41.2,29.23,SE,135,4.3,8.7,90,0.01,,,0.06,WUHU216HW,2013-03-16 08:45:00,
2013-03-16 08:50:00,43.9,41.2,29.23,SE,135,6.5,8.5,90,0.01,,,0.06,WUHU216HW,2013-03-16 08:50:00,
2013-03-16 08:55:00,43.9,41.2,29.23,SE,135,7.4,12.1,90,0.01,,,0.06,WUHU216HW,2013-03-16 08:55:00,
2013-03-16 09:00:00,43.9,41.5,29.22,East,90,4.0,12.1,91,0.02,,,0.07,WUHU216HW,2013-03-16 09:00:00,
2013-03-16 09:05:00,43.9,41.5,29.22,South,180,4.0,10.1,91,0.02,,,0.07,WUHU216HW,2013-03-16 09:05:00,
2013-03-16 09:10:00,43.7,41.0,29.22,South,180,2.7,11.2,90,0.02,,,0.07,WUHU216HW,2013-03-16 09:10:00,
2013-03-16 09:15:00,43.7,41.3,29.22,ESE,113,4.0,11.2,91,0.03,,,0.08,WUHU216HW,2013-03-16 09:15:00,
2013-03-16 09:20:00,43.7,41.3,29.22,SE,135,5.1,9.6,91,0.03,,,0.08,WUHU216HW,2013-03-16 09:20:00,
2013-03-16 09:25:00,43.6,41.1,29.22,ENE,68,4.0,9.6,91,0.03,,,0.08,WUHU216HW,2013-03-16 09:25:00,
2013-03-16 09:30:00,43.6,41.1,29.22,SSE,158,5.6,9.8,91,0.03,,,0.09,WUHU216HW,2013-03-16 09:30:00,
2013-03-16 09:35:00,43.6,41.1,29.22,ESE,113,5.4,9.8,91,0.03,,,0.09,WUHU216HW,2013-03-16 09:35:00,
2013-03-16 09:40:00,43.4,41.0,29.21,ESE,113,3.4,8.7,91,0.03,,,0.09,WUHU216HW,2013-03-16 09:40:00,
2013-03-16 09:45:00,43.4,41.2,29.21,ESE,113,5.6,8.7,92,0.03,,,0.09,WUHU216HW,2013-03-16 09:45:00,
2013-03-16 09:50:00,43.4,41.0,29.21,ENE,68,5.1,8.5,91,0.04,,,0.10,WUHU216HW,2013-03-16 09:50:00,
2013-03-16 09:55:00,43.4,41.2,29.21,SSE,158,6.3,8.5,92,0.04,,,0.10,WUHU216HW,2013-03-16 09:55:00,
2013-03-16 10:00:00,43.2,41.0,29.21,SSE,158,2.5,8.5,92,0.03,,,0.10,WUHU216HW,2013-03-16 10:00:00,
2013-03-16 10:05:00,43.2,41.0,29.21,SW,225,4.0,6.9,92,0.03,,,0.10,WUHU216HW,2013-03-16 10:05:00,
2013-03-16 10:10:00,43.4,41.2,29.21,South,180,2.2,6.9,92,0.03,,,0.10,WUHU216HW,2013-03-16 10:10:00,
2013-03-16 10:15:00,43.4,41.2,29.21,ESE,113,3.1,8.5,92,0.03,,,0.11,WUHU216HW,2013-03-16 10:15:00,
2013-03-16 10:20:00,43.4,41.2,29.21,ESE,113,6.3,8.7,92,0.03,,,0.11,WUHU216HW,2013-03-16 10:20:00,
2013-03-16 10:25:00,43.2,41.0,29.21,South,180,3.1,8.7,92,0.03,,,0.11,WUHU216HW,2013-03-16 10:25:00,
2013-03-16 10:30:00,43.2,41.0,29.21,ESE,113,5.6,8.7,92,0.03,,,0.13,WUHU216HW,2013-03-16 10:30:00,
2013-03-16 10:35:00,43.2,41.3,29.21,ENE,68,2.0,8.1,93,0.03,,,0.13,WUHU216HW,2013-03-16 10:35:00,
2013-03-16 10:40:00,43.2,41.3,29.21,East,90,1.1,6.7,93,0.03,,,0.13,WUHU216HW,2013-03-16 10:40:00,
2013-03-16 10:45:00,43.4,41.5,29.21,South,180,3.4,5.1,93,0.03,,,0.13,WUHU216HW,2013-03-16 10:45:00,
2013-03-16 10:50:00,43.6,41.7,29.21,SSW,203,3.4,6.0,93,0.03,,,0.14,WUHU216HW,2013-03-16 10:50:00,
2013-03-16 10:55:00,43.4,41.2,29.21,South,180,8.3,8.3,92,0.03,,,0.14,WUHU216HW,2013-03-16 10:55:00,
2013-03-16 11:00:00,43.0,40.6,29.21,NW,315,2.2,8.3,91,0.03,,,0.14,WUHU216HW,2013-03-16 11:00:00,
2013-03-16 11:05:00,43.0,40.9,29.21,South,180,2.7,8.3,92,0.05,,,0.15,WUHU216HW,2013-03-16 11:05:00,
2013-03-16 11:10:00,42.8,40.7,29.21,West,270,6.0,6.0,92,0.05,,,0.15,WUHU216HW,2013-03-16 11:10:00,
2013-03-16 11:15:00,42.8,40.7,29.21,NNW,338,1.6,6.0,92,0.03,,,0.15,WUHU216HW,2013-03-16 11:15:00,
2013-03-16 11:20:00,43.0,41.1,29.21,West,270,4.0,6.0,93,0.03,,,0.15,WUHU216HW,2013-03-16 11:20:00,
2013-03-16 11:25:00,43.4,41.5,29.21,SW,225,3.4,6.0,93,0.03,,,0.15,WUHU216HW,2013-03-16 11:25:00,
2013-03-16 11:30:00,43.7,41.9,29.21,SE,135,3.8,6.0,93,0.02,,,0.15,WUHU216HW,2013-03-16 11:30:00,
2013-03-16 11:35:00,44.1,42.2,29.22,SW,225,0.7,5.4,93,0.02,,,0.15,WUHU216HW,2013-03-16 11:35:00,
2013-03-16 11:40:00,44.6,42.8,29.22,South,180,3.6,4.7,93,0.02,,,0.15,WUHU216HW,2013-03-16 11:40:00,
2013-03-16 11:45:00,45.0,43.1,29.22,NNE,23,2.0,6.3,93,0.02,,,0.15,WUHU216HW,2013-03-16 11:45:00,
2013-03-16 11:50:00,45.0,42.6,29.22,SSW,203,3.8,8.1,91,0.01,,,0.15,WUHU216HW,2013-03-16 11:50:00,
2013-03-16 11:55:00,45.4,42.9,29.22,SSW,203,1.1,8.1,91,0.01,,,0.15,WUHU216HW,2013-03-16 11:55:00,
2013-03-16 12:00:00,45.7,43.3,29.22,SW,225,3.6,6.9,91,0.01,,,0.15,WUHU216HW,2013-03-16 12:00:00,
2013-03-16 12:05:00,45.7,43.3,29.22,SSW,203,1.1,5.4,91,0.00,,,0.15,WUHU216HW,2013-03-16 12:05:00,
2013-03-16 12:10:00,45.7,43.0,29.22,SE,135,2.2,4.5,90,0.00,,,0.15,WUHU216HW,2013-03-16 12:10:00,
2013-03-16 12:15:00,45.7,43.0,29.22,ESE,113,2.5,3.8,90,0.00,,,0.15,WUHU216HW,2013-03-16 12:15:00,
2013-03-16 12:20:00,45.7,43.0,29.21,ESE,113,2.0,3.8,90,0.00,,,0.15,WUHU216HW,2013-03-16 12:20:00,
2013-03-16 12:25:00,45.7,43.3,29.21,SE,135,5.6,5.6,91,0.00,,,0.15,WUHU216HW,2013-03-16 12:25:00,
2013-03-16 12:30:00,46.1,43.7,29.21,East,90,2.5,5.6,91,0.00,,,0.15,WUHU216HW,2013-03-16 12:30:00,
2013-03-16 12:35:00,46.4,44.0,29.21,ESE,113,2.9,5.6,91,0.00,,,0.15,WUHU216HW,2013-03-16 12:35:00,
2013-03-16 12:40:00,46.6,43.7,29.21,East,90,2.0,4.9,89,0.00,,,0.15,WUHU216HW,2013-03-16 12:40:00,
2013-03-16 12:45:00,46.8,43.5,29.22,East,90,3.1,4.0,88,0.00,,,0.15,WUHU216HW,2013-03-16 12:45:00,
2013-03-16 12:50:00,47.0,43.7,29.21,South,180,0.4,4.3,88,0.00,,,0.15,WUHU216HW,2013-03-16 12:50:00,
2013-03-16 12:55:00,47.2,43.8,29.21,South,180,4.5,4.5,88,0.00,,,0.15,WUHU216HW,2013-03-16 12:55:00,
2013-03-16 13:00:00,47.5,43.6,29.21,WSW,248,2.9,4.9,86,0.00,,,0.15,WUHU216HW,2013-03-16 13:00:00,
2013-03-16 13:05:00,47.3,43.0,29.21,East,90,1.1,4.9,85,0.00,,,0.15,WUHU216HW,2013-03-16 13:05:00,
2013-03-16 13:10:00,47.3,43.0,29.21,WSW,248,3.4,3.8,85,0.00,,,0.15,WUHU216HW,2013-03-16 13:10:00,
2013-03-16 13:15:00,47.3,43.4,29.21,South,180,1.8,3.8,86,0.00,,,0.15,WUHU216HW,2013-03-16 13:15:00,
2013-03-16 13:20:00,47.9,43.6,29.21,SE,135,2.5,5.8,85,0.00,,,0.15,WUHU216HW,2013-03-16 13:20:00,
2013-03-16 13:25:00,47.9,43.3,29.21,SSW,203,1.8,5.8,84,0.00,,,0.15,WUHU216HW,2013-03-16 13:25:00,
2013-03-16 13:30:00,47.9,42.9,29.20,SE,135,3.4,5.8,83,0.00,,,0.15,WUHU216HW,2013-03-16 13:30:00,
2013-03-16 13:35:00,47.9,42.9,29.20,ESE,113,2.0,7.6,83,0.00,,,0.15,WUHU216HW,2013-03-16 13:35:00,
2013-03-16 13:40:00,47.9,42.9,29.20,ESE,113,3.8,7.6,83,0.00,,,0.15,WUHU216HW,2013-03-16 13:40:00,
2013-03-16 13:45:00,47.9,42.9,29.20,SSE,158,5.8,6.0,83,0.00,,,0.15,WUHU216HW,2013-03-16 13:45:00,
2013-03-16 13:50:00,48.2,43.3,29.20,SE,135,5.4,5.8,83,0.00,,,0.15,WUHU216HW,2013-03-16 13:50:00,
2013-03-16 13:55:00,48.4,43.1,29.19,NNE,23,0.9,5.8,82,0.00,,,0.15,WUHU216HW,2013-03-16 13:55:00,
2013-03-16 14:00:00,48.4,43.1,29.19,ENE,68,3.4,6.3,82,0.00,,,0.15,WUHU216HW,2013-03-16 14:00:00,
2013-03-16 14:05:00,47.9,41.9,29.19,ESE,113,2.5,6.3,80,0.00,,,0.15,WUHU216HW,2013-03-16 14:05:00,
2013-03-16 14:10:00,48.2,42.7,29.19,North,0,3.4,6.5,81,0.00,,,0.15,WUHU216HW,2013-03-16 14:10:00,
2013-03-16 14:15:00,48.4,42.5,29.19,SW,225,2.5,6.5,80,0.00,,,0.15,WUHU216HW,2013-03-16 14:15:00,
2013-03-16 14:20:00,48.1,42.5,29.19,NE,45,3.6,6.3,81,0.00,,,0.15,WUHU216HW,2013-03-16 14:20:00,
2013-03-16 14:25:00,47.9,42.7,29.19,South,180,4.0,6.5,82,0.00,,,0.15,WUHU216HW,2013-03-16 14:25:00,
2013-03-16 14:30:00,47.9,42.9,29.19,ESE,113,1.8,6.5,83,0.00,,,0.15,WUHU216HW,2013-03-16 14:30:00,
2013-03-16 14:35:00,48.1,43.1,29.19,SSW,203,2.9,6.9,83,0.00,,,0.15,WUHU216HW,2013-03-16 14:35:00,
2013-03-16 14:40:00,48.1,43.1,29.19,ESE,113,1.8,6.9,83,0.00,,,0.15,WUHU216HW,2013-03-16 14:40:00,
2013-03-16 14:45:00,47.9,42.7,29.19,NNE,23,1.3,6.5,82,0.00,,,0.15,WUHU216HW,2013-03-16 14:45:00,
2013-03-16 14:50:00,47.9,42.7,29.19,South,180,2.9,6.5,82,0.00,,,0.15,WUHU216HW,2013-03-16 14:50:00,
2013-03-16 14:55:00,47.7,42.8,29.19,ESE,113,1.8,6.3,83,0.00,,,0.15,WUHU216HW,2013-03-16 14:55:00,
2013-03-16 15:00:00,47.9,42.9,29.19,ESE,113,4.0,6.3,83,0.00,,,0.15,WUHU216HW,2013-03-16 15:00:00,
2013-03-16 15:05:00,47.7,42.8,29.19,South,180,2.2,6.3,83,0.00,,,0.15,WUHU216HW,2013-03-16 15:05:00,
2013-03-16 15:10:00,47.9,42.9,29.19,East,90,2.7,5.8,83,0.00,,,0.15,WUHU216HW,2013-03-16 15:10:00,
2013-03-16 15:15:00,48.2,42.7,29.18,SE,135,4.7,9.2,81,0.00,,,0.15,WUHU216HW,2013-03-16 15:15:00,
2013-03-16 15:20:00,48.2,42.7,29.18,ENE,68,3.4,9.2,81,0.00,,,0.15,WUHU216HW,2013-03-16 15:20:00,
2013-03-16 15:25:00,48.1,42.8,29.18,SE,135,2.2,7.2,82,0.00,,,0.15,WUHU216HW,2013-03-16 15:25:00,
2013-03-16 15:30:00,47.9,42.9,29.18,SE,135,1.3,9.2,83,0.00,,,0.15,WUHU216HW,2013-03-16 15:30:00,
2013-03-16 15:35:00,47.3,42.5,29.18,SE,135,8.5,9.2,83,0.00,,,0.15,WUHU216HW,2013-03-16 15:35:00,
2013-03-16 15:40:00,47.2,42.6,29.18,NNW,338,4.9,8.5,84,0.00,,,0.15,WUHU216HW,2013-03-16 15:40:00,
2013-03-16 15:45:00,46.8,42.2,29.18,SSE,158,4.7,8.1,84,0.00,,,0.15,WUHU216HW,2013-03-16 15:45:00,
2013-03-16 15:50:00,46.6,42.4,29.18,SE,135,5.8,8.1,85,0.00,,,0.15,WUHU216HW,2013-03-16 15:50:00,
2013-03-16 15:55:00,46.4,42.2,29.18,SE,135,3.4,8.3,85,0.00,,,0.15,WUHU216HW,2013-03-16 15:55:00,
2013-03-16 16:00:00,46.3,42.0,29.18,ESE,113,6.7,8.3,85,0.00,,,0.15,WUHU216HW,2013-03-16 16:00:00,
2013-03-16 16:05:00,46.3,42.0,29.18,East,90,6.0,8.5,85,0.00,,,0.15,WUHU216HW,2013-03-16 16:05:00,
2013-03-16 16:10:00,46.4,42.5,29.17,ESE,113,4.7,8.5,86,0.00,,,0.15,WUHU216HW,2013-03-16 16:10:00,
2013-03-16 16:15:00,46.8,42.2,29.17,NNE,23,4.7,6.0,84,0.00,,,0.15,WUHU216HW,2013-03-16 16:15:00,
2013-03-16 16:20:00,46.6,41.8,29.17,SW,225,3.1,6.3,83,0.00,,,0.15,WUHU216HW,2013-03-16 16:20:00,
2013-03-16 16:25:00,46.6,41.5,29.17,SSE,158,9.2,9.2,82,0.00,,,0.15,WUHU216HW,2013-03-16 16:25:00,
2013-03-16 16:30:00,46.6,41.8,29.17,SE,135,8.3,9.2,83,0.00,,,0.15,WUHU216HW,2013-03-16 16:30:00,
2013-03-16 16:35:00,46.6,41.8,29.17,ENE,68,0.4,9.2,83,0.00,,,0.15,WUHU216HW,2013-03-16 16:35:00,
2013-03-16 16:40:00,46.6,41.5,29.17,South,180,4.3,8.3,82,0.00,,,0.15,WUHU216HW,2013-03-16 16:40:00,
2013-03-16 16:45:00,46.4,41.3,29.17,SE,135,4.5,7.6,82,0.00,,,0.15,WUHU216HW,2013-03-16 16:45:00,
2013-03-16 16:50:00,46.1,41.0,29.17,ESE,113,5.8,9.2,82,0.00,,,0.15,WUHU216HW,2013-03-16 16:50:00,
2013-03-16 16:55:00,45.9,41.0,29.17,NNE,23,5.1,9.2,83,0.00,,,0.15,WUHU216HW,2013-03-16 16:55:00,
2013-03-16 17:00:00,45.5,40.7,29.17,ESE,113,4.5,7.4,83,0.00,,,0.15,WUHU216HW,2013-03-16 17:00:00,
2013-03-16 17:05:00,45.4,40.9,29.17,North,0,4.0,4.7,84,0.00,,,0.15,WUHU216HW,2013-03-16 17:05:00,
2013-03-16 17:10:00,45.0,40.1,29.17,SE,135,4.9,8.9,83,0.00,,,0.15,WUHU216HW,2013-03-16 17:10:00,
2013-03-16 17:15:00,45.0,40.5,29.16,ESE,113,4.0,8.9,84,0.00,,,0.15,WUHU216HW,2013-03-16 17:15:00,
2013-03-16 17:20:00,44.8,40.6,29.16,SE,135,3.1,8.3,85,0.00,,,0.15,WUHU216HW,2013-03-16 17:20:00,
2013-03-16 17:25:00,44.6,40.4,29.16,East,90,8.5,9.8,85,0.00,,,0.15,WUHU216HW,2013-03-16 17:25:00,
2013-03-16 17:30:00,44.5,40.2,29.16,ESE,113,5.1,9.8,85,0.00,,,0.15,WUHU216HW,2013-03-16 17:30:00,
2013-03-16 17:35:00,44.3,40.3,29.16,SSE,158,5.4,7.4,86,0.00,,,0.15,WUHU216HW,2013-03-16 17:35:00,
2013-03-16 17:40:00,44.3,40.7,29.16,ESE,113,1.8,6.9,87,0.00,,,0.15,WUHU216HW,2013-03-16 17:40:00,
2013-03-16 17:45:00,44.1,40.5,29.16,SE,135,1.6,5.4,87,0.00,,,0.15,WUHU216HW,2013-03-16 17:45:00,
2013-03-16 17:50:00,43.9,40.3,29.16,ESE,113,2.5,7.2,87,0.00,,,0.15,WUHU216HW,2013-03-16 17:50:00,
2013-03-16 17:55:00,43.9,40.6,29.16,ESE,113,5.1,7.2,88,0.00,,,0.15,WUHU216HW,2013-03-16 17:55:00,
2013-03-16 18:00:00,43.9,40.6,29.16,SSE,158,2.5,6.3,88,0.00,,,0.15,WUHU216HW,2013-03-16 18:00:00,
2013-03-16 18:05:00,43.7,40.4,29.17,South,180,1.1,6.0,88,0.00,,,0.15,WUHU216HW,2013-03-16 18:05:00,
2013-03-16 18:10:00,43.7,40.8,29.18,South,180,7.6,7.6,89,0.01,,,0.16,WUHU216HW,2013-03-16 18:10:00,
2013-03-16 18:15:00,43.2,39.6,29.18,South,180,5.6,7.6,87,0.02,,,0.17,WUHU216HW,2013-03-16 18:15:00,
2013-03-16 18:20:00,42.7,39.1,29.17,South,180,5.4,7.6,87,0.02,,,0.17,WUHU216HW,2013-03-16 18:20:00,
2013-03-16 18:25:00,42.3,38.7,29.17,SSW,203,1.3,7.4,87,0.03,,,0.18,WUHU216HW,2013-03-16 18:25:00,
2013-03-16 18:30:00,42.1,39.2,29.17,SE,135,0.7,2.9,89,0.03,,,0.18,WUHU216HW,2013-03-16 18:30:00,
2013-03-16 18:35:00,42.1,39.2,29.17,East,90,0.4,2.5,89,0.03,,,0.18,WUHU216HW,2013-03-16 18:35:00,
2013-03-16 18:40:00,42.1,39.2,29.16,SE,135,1.8,3.4,89,0.03,,,0.18,WUHU216HW,2013-03-16 18:40:00,
2013-03-16 18:45:00,42.1,39.4,29.16,SE,135,1.3,3.4,90,0.03,,,0.18,WUHU216HW,2013-03-16 18:45:00,
2013-03-16 18:50:00,42.1,39.4,29.16,NNE,23,3.4,3.4,90,0.03,,,0.18,WUHU216HW,2013-03-16 18:50:00,
2013-03-16 18:55:00,42.3,39.9,29.16,East,90,3.6,3.6,91,0.03,,,0.18,WUHU216HW,2013-03-16 18:55:00,
2013-03-16 19:00:00,42.5,40.1,29.15,NE,45,0.9,4.3,91,0.03,,,0.18,WUHU216HW,2013-03-16 19:00:00,
2013-03-16 19:05:00,42.5,40.1,29.15,SE,135,4.0,5.1,91,0.03,,,0.18,WUHU216HW,2013-03-16 19:05:00,
2013-03-16 19:10:00,42.7,40.2,29.15,ESE,113,3.4,5.1,91,0.02,,,0.18,WUHU216HW,2013-03-16 19:10:00,
2013-03-16 19:15:00,42.7,40.2,29.14,SSE,158,1.1,4.9,91,0.01,,,0.18,WUHU216HW,2013-03-16 19:15:00,
2013-03-16 19:20:00,42.7,40.2,29.14,ESE,113,1.3,4.0,91,0.01,,,0.18,WUHU216HW,2013-03-16 19:20:00,
2013-03-16 19:25:00,42.7,40.2,29.14,ESE,113,2.2,6.0,91,0.00,,,0.18,WUHU216HW,2013-03-16 19:25:00,
2013-03-16 19:30:00,42.7,40.2,29.14,NNE,23,1.6,6.0,91,0.00,,,0.18,WUHU216HW,2013-03-16 19:30:00,
2013-03-16 19:36:00,42.7,40.2,29.14,SSE,158,2.5,6.7,91,0.00,,,0.18,WUHU216HW,2013-03-16 19:36:00,
2013-03-16 19:41:00,42.7,40.2,29.14,ENE,68,4.7,6.7,91,0.00,,,0.18,WUHU216HW,2013-03-16 19:41:00,
2013-03-16 19:46:00,42.7,40.2,29.13,ESE,113,3.4,5.4,91,0.00,,,0.18,WUHU216HW,2013-03-16 19:46:00,
2013-03-16 19:51:00,42.7,40.2,29.13,ESE,113,3.8,5.4,91,0.00,,,0.18,WUHU216HW,2013-03-16 19:51:00,
2013-03-16 19:56:00,42.7,40.2,29.13,SSE,158,4.3,6.9,91,0.00,,,0.18,WUHU216HW,2013-03-16 19:56:00,
2013-03-16 20:01:00,42.8,40.4,29.13,ESE,113,2.5,6.9,91,0.00,,,0.18,WUHU216HW,2013-03-16 20:01:00,
2013-03-16 20:06:00,42.7,40.2,29.12,ESE,113,3.4,7.6,91,0.01,,,0.19,WUHU216HW,2013-03-16 20:06:00,
2013-03-16 20:11:00,42.8,40.4,29.12,NNE,23,2.0,7.6,91,0.01,,,0.19,WUHU216HW,2013-03-16 20:11:00,
2013-03-16 20:16:00,42.8,40.7,29.12,SE,135,4.7,6.3,92,0.01,,,0.19,WUHU216HW,2013-03-16 20:16:00,
2013-03-16 20:21:00,42.8,40.7,29.13,East,90,4.0,8.7,92,0.01,,,0.19,WUHU216HW,2013-03-16 20:21:00,
2013-03-16 20:26:00,42.8,40.7,29.13,West,270,7.6,8.9,92,0.01,,,0.19,WUHU216HW,2013-03-16 20:26:00,
2013-03-16 20:31:00,42.8,40.4,29.12,East,90,4.0,8.9,91,0.01,,,0.19,WUHU216HW,2013-03-16 20:31:00,
2013-03-16 20:36:00,42.8,40.4,29.12,SE,135,2.5,7.6,91,0.01,,,0.19,WUHU216HW,2013-03-16 20:36:00,
2013-03-16 20:41:00,42.8,40.4,29.12,NE,45,0.4,4.9,91,0.01,,,0.19,WUHU216HW,2013-03-16 20:41:00,
2013-03-16 20:46:00,42.8,40.4,29.12,North,0,2.0,6.0,91,0.01,,,0.19,WUHU216HW,2013-03-16 20:46:00,
2013-03-16 20:51:00,42.8,40.4,29.11,South,180,4.7,6.0,91,0.01,,,0.19,WUHU216HW,2013-03-16 20:51:00,
2013-03-16 20:56:00,42.8,40.1,29.12,WSW,248,2.0,4.9,90,0.01,,,0.19,WUHU216HW,2013-03-16 20:56:00,
2013-03-16 21:01:00,42.7,40.0,29.12,SW,225,2.0,4.9,90,0.01,,,0.19,WUHU216HW,2013-03-16 21:01:00,
2013-03-16 21:06:00,42.7,39.7,29.12,East,90,1.1,5.4,89,0.00,,,0.19,WUHU216HW,2013-03-16 21:06:00,
2013-03-16 21:11:00,42.5,39.5,29.12,SE,135,0.4,6.7,89,0.00,,,0.19,WUHU216HW,2013-03-16 21:11:00,
2013-03-16 21:16:00,42.3,39.6,29.12,ENE,68,0.9,6.7,90,0.00,,,0.19,WUHU216HW,2013-03-16 21:16:00,
2013-03-16 21:21:00,42.3,39.6,29.12,SSE,158,2.9,4.0,90,0.00,,,0.19,WUHU216HW,2013-03-16 21:21:00,
2013-03-16 21:26:00,42.3,39.6,29.12,South,180,1.1,6.3,90,0.01,,,0.20,WUHU216HW,2013-03-16 21:26:00,
2013-03-16 21:31:00,42.3,39.9,29.12,South,180,3.4,7.6,91,0.01,,,0.20,WUHU216HW,2013-03-16 21:31:00,
2013-03-16 21:36:00,42.3,39.6,29.12,SE,135,4.5,9.2,90,0.02,,,0.22,WUHU216HW,2013-03-16 21:36:00,
2013-03-16 21:41:00,42.3,39.6,29.12,SSW,203,4.0,9.2,90,0.02,,,0.22,WUHU216HW,2013-03-16 21:41:00,
2013-03-16 21:46:00,42.1,39.7,29.12,ESE,113,5.4,7.8,91,0.02,,,0.22,WUHU216HW,2013-03-16 21:46:00,
2013-03-16 21:52:00,42.1,39.7,29.12,East,90,3.4,5.4,91,0.02,,,0.22,WUHU216HW,2013-03-16 21:52:00,
2013-03-16 21:57:00,41.9,39.5,29.12,SSE,158,4.0,6.3,91,0.02,,,0.22,WUHU216HW,2013-03-16 21:57:00,
2013-03-16 22:02:00,41.9,39.5,29.12,ESE,113,3.8,6.3,91,0.02,,,0.22,WUHU216HW,2013-03-16 22:02:00,
2013-03-16 22:07:00,41.9,39.5,29.12,NE,45,2.7,5.1,91,0.02,,,0.22,WUHU216HW,2013-03-16 22:07:00,
2013-03-16 22:12:00,41.9,39.5,29.13,SSW,203,4.0,5.1,91,0.02,,,0.22,WUHU216HW,2013-03-16 22:12:00,
2013-03-16 22:17:00,41.8,39.3,29.12,SW,225,2.2,4.9,91,0.02,,,0.22,WUHU216HW,2013-03-16 22:17:00,
2013-03-16 22:22:00,41.8,39.1,29.13,East,90,0.7,6.9,90,0.02,,,0.22,WUHU216HW,2013-03-16 22:22:00,
2013-03-16 22:27:00,41.6,38.9,29.13,SE,135,3.4,6.9,90,0.01,,,0.22,WUHU216HW,2013-03-16 22:27:00,
2013-03-16 22:32:00,41.6,38.9,29.13,SE,135,2.7,5.6,90,0.01,,,0.22,WUHU216HW,2013-03-16 22:32:00,
2013-03-16 22:37:00,41.6,38.9,29.13,ESE,113,1.1,5.6,90,0.00,,,0.22,WUHU216HW,2013-03-16 22:37:00,
2013-03-16 22:42:00,41.8,39.3,29.13,SW,225,2.9,8.1,91,0.00,,,0.22,WUHU216HW,2013-03-16 22:42:00,
2013-03-16 22:47:00,41.8,39.3,29.14,ENE,68,1.6,8.1,91,0.00,,,0.22,WUHU216HW,2013-03-16 22:47:00,
2013-03-16 22:52:00,41.8,39.3,29.14,ESE,113,0.4,6.7,91,0.00,,,0.22,WUHU216HW,2013-03-16 22:52:00,
2013-03-16 22:57:00,41.8,39.3,29.14,SSE,158,1.8,5.6,91,0.00,,,0.22,WUHU216HW,2013-03-16 22:57:00,
2013-03-16 23:02:00,41.8,39.1,29.14,WSW,248,3.1,7.6,90,0.00,,,0.22,WUHU216HW,2013-03-16 23:02:00,
2013-03-16 23:07:00,41.4,38.7,29.14,SSW,203,3.4,7.6,90,0.00,,,0.22,WUHU216HW,2013-03-16 23:07:00,
2013-03-16 23:12:00,41.4,38.7,29.14,South,180,7.4,7.4,90,0.00,,,0.22,WUHU216HW,2013-03-16 23:12:00,
2013-03-16 23:17:00,41.2,38.5,29.14,SSW,203,1.8,7.4,90,0.00,,,0.22,WUHU216HW,2013-03-16 23:17:00,
2013-03-16 23:22:00,41.0,38.3,29.14,SSW,203,3.1,7.4,90,0.00,,,0.22,WUHU216HW,2013-03-16 23:22:00,
2013-03-16 23:27:00,41.0,38.3,29.14,SSW,203,1.1,5.6,90,0.00,,,0.22,WUHU216HW,2013-03-16 23:27:00,
2013-03-16 23:32:00,40.9,38.2,29.14,SSW,203,0.9,5.6,90,0.00,,,0.22,WUHU216HW,2013-03-16 23:32:00,
2013-03-16 23:37:00,40.9,38.4,29.15,South,180,1.1,3.8,91,0.00,,,0.22,WUHU216HW,2013-03-16 23:37:00,
2013-03-16 23:42:00,40.9,38.4,29.15,SSE,158,0.9,5.4,91,0.00,,,0.22,WUHU216HW,2013-03-16 23:42:00,
2013-03-16 23:47:00,41.0,38.6,29.15,SE,135,1.8,5.4,91,0.00,,,0.22,WUHU216HW,2013-03-16 23:47:00,
2013-03-16 23:52:00,41.0,38.6,29.15,SE,135,1.8,5.4,91,0.00,,,0.22,WUHU216HW,2013-03-16 23:52:00,
2013-03-16 23:57:00,41.0,38.6,29.15,South,180,4.0,4.7,91,0.00,,,0.22,WUHU216HW,2013-03-16 23:57:00,